Location: La Chapelle
(48.3135°N, 1.3085°W)
Time: 10:25:24
(UTC+00:00)

Cosmos 2154 Rocket - Pass Details

Date: 03 March 2021
Orbit: 966 x 996 km, 82.9° (Epoch: 10 April)

Event Time Altitude Azimuth Distance (km) Brightness Sun altitude
Rises 19:19:10 0° 196° (SSW) 3,657 7.1 -15.2°
Reaches altitude 10° 19:21:42 10° 199° (SSW) 2,710 6.5 -15.6°
Maximum altitude 19:27:52 67° 282° (WNW) 1,047 4.4 -16.6°
Drops below altitude 10° 19:34:04 10° 5° (N) 2,718 6.4 -17.6°
Sets 19:36:36 0° 8° (N) 3,669 7.1 -18.0°
